Showing default

GAOFEN 1-04, 43262

Orbit data source: Space-Track

GAOFEN 1-04, 43262 is a payload satellite owned by GGKGJ (CN) in SSO that was launched on Sat, 31 Mar 2018 UTC via a CHANG ZHENG 4C launch vehicle from the Taiyaun Space Center, China (TSC). Payload-class satellites include a variety of spacecraft equipped with specific instruments for various scientific and technological missions. These include communications satellites like Starlink; space stations such as the ISS; scientific satellites like the Hubble; Earth observation satellites from companies like Planet Labs, Umbra, and HawkEye 360; GPS; miniature CubeSats for education and research; and military/defense satellites.

Loading next visibility...
Identifier
43262, 2018-031D
Orbit
SSO
Country
Flag of CNCN / PRC
Related business
Manufacturer
DFH
Mission
Operational Civil Imaging
Bus & Motor
CAST-2000, AOCS
Mass
805 kg wet, ~700 kg dry
Launch date (UTC)
2018-03-31 (8 years ago)
Launch vehicle
CHANG ZHENG 4C
Launch site
Taiyaun Space Center, China (TSC)
Object type
Payload
Rocket body
Debris
Shape & HBR
Box + 2 Pan, 2.0 m
Radar Cross Section
4.991 m², Large (>1 m²)

Expand to show TLE details & history
Last TLE update: 4 hours ago

TLE from 4 hours ago
0 GAOFEN 1-04
1 43262U 18031D   26037.86111727  .00001364  00000-0  20350-3 0  9998
2 43262  98.0709 100.6915 0001808 112.0865 248.0537 14.76457988423450
Epoch: 2026-02-06T20:40Z
TLE epoch observation values (Epoch: 2026-02-06T20:40:00.532Z)
Latitude
0.00004°
Longitude
13.69636°
Altitude
644.013 km
Speed
7.536 km/s
True Right ascension
06h 42m 45s
True Declination
0° 00' 00"
Sunlit
Object was in full shadow at epoch
Visualization orbit readout
Latitude
Unknown
Longitude
Unknown
Altitude
Unknown
Speed
Unknown
Apparent Right ascension
Unknown
Apparent Declination
Unknown
Sunlit
N/A
Visualization observer readout
Local Sidereal Time
02:54:09
Azimuth
Unknown
Elevation
Unknown
Doppler factor
Unknown
Orbital elements
Apogee altitude
638.849 km
Perigee altitude
636.312 km
Semi-major axis
7,015.717 km
Eccentricity
0.00018
Inclination
98.0709°
RAAN
100.6915°
Arg. of periapsis
112.0865°
True anomaly
248.03448°
Mean anomaly
248.0537°
Eccentric anomaly
248.04409°
Mean motion
3.69347 °/min
Orbital period
97.47 mins
BSTAR
0.0002035
Loading maneuver chart data...
Computing Atmospheric mass density...
Loading historical data...
Loading historical data...
Loading historical data...
Loading historical data...
Loading historical data...
Loading historical data...
Loading historical data...

Documentation

Showing up to 5 results
|